| time (UTC) | temp F | wind direction | speed MPH | gust MPH | rain 1hr in | rain 24hr in | rain mn in | humidity % | barometer mb |
| 20260506211016 | 0 | 0.0 | 0.0 | 0.00 | 0.08 | 0.12 | |||
| 20260506204535 | 0 | 0.0 | 0.0 | 0.00 | 0.08 | 0.12 | |||
| 20260506202515 | 0 | 0.0 | 0.0 | 0.00 | 0.08 | 0.12 | |||
| 20260506201515 | 0 | 0.0 | 0.0 | 0.00 | 0.08 | 0.12 | |||
| 20260506195516 | 0 | 0.0 | 0.0 | 0.00 | 0.08 | 0.12 | |||
| 20260506193515 | 0 | 0.0 | 0.0 | 0.00 | 0.08 | 0.12 | |||
| 20260506192536 | 0 | 0.0 | 0.0 | 0.00 | 0.08 | 0.12 | |||
| 20260506191016 | 0 | 0.0 | 0.0 | 0.00 | 0.08 | 0.12 | |||
| 20260506190035 | 0 | 0.0 | 0.0 | 0.00 | 0.08 | 0.12 | |||
| 20260506184516 | 0 | 0.0 | 0.0 | 0.00 | 0.08 | 0.12 | |||
| 20260506183516 | 0 | 0.0 | 0.0 | 0.00 | 0.08 | 0.12 | |||
| 20260506181515 | 0 | 0.0 | 0.0 | 0.00 | 0.08 | 0.12 | |||
| 20260506175016 | 60 | 0.0 | 1.0 | 0.00 | 0.08 | 0.12 | 78 | ||
| 20260506174056 | 60 | 0.0 | 4.0 | 0.00 | 0.08 | 0.12 | 78 | ||
| 20260506173015 | 60 | 0.0 | 1.0 | 0.00 | 0.08 | 0.12 | 77 | ||
| 20260506172016 | 60 | 0.0 | 3.0 | 0.00 | 0.08 | 0.12 | 76 | ||
| 20260506171015 | 60 | 0.0 | 3.0 | 0.00 | 0.08 | 0.12 | 77 | ||
| 20260506170036 | 61 | 0.0 | 3.0 | 0.00 | 0.08 | 0.12 | 78 | ||
| 20260506165015 | 61 | 0.0 | 5.0 | 0.00 | 0.08 | 0.12 | 78 | ||
| 20260506164016 | 60 | 1.0 | 5.0 | 0.00 | 0.08 | 0.12 | 78 | ||
| 20260506163015 | 61 | 0.0 | 1.0 | 0.00 | 0.08 | 0.12 | 79 | ||
| 20260506162015 | 60 | 0.0 | 4.0 | 0.00 | 0.08 | 0.12 | 79 | ||
| 20260506161015 | 60 | 1.0 | 6.0 | 0.00 | 0.08 | 0.12 | 78 | ||
| 20260506160015 | 61 | 3.0 | 10.0 | 0.00 | 0.08 | 0.12 | 76 | ||
| 20260506155016 | 61 | 0.0 | 2.0 | 0.00 | 0.08 | 0.12 | 77 | ||
| 20260506154016 | 61 | 1.0 | 4.0 | 0.00 | 0.09 | 0.12 | 76 | ||
| 20260506153015 | 61 | 1.0 | 4.0 | 0.00 | 0.09 | 0.12 | 75 | ||
| 20260506152015 | 62 | 1.0 | 5.0 | 0.00 | 0.09 | 0.12 | 75 | ||
| 20260506151015 | 62 | 1.0 | 4.0 | 0.00 | 0.09 | 0.12 | 75 | ||
| 20260506150037 | 62 | 0.0 | 2.0 | 0.00 | 0.09 | 0.12 | 74 | ||
| 20260506145015 | 62 | 1.0 | 4.0 | 0.00 | 0.09 | 0.12 | 74 | ||
| 20260506144016 | 62 | 1.0 | 5.0 | 0.00 | 0.09 | 0.12 | 75 | ||
| 20260506143016 | 62 | 0.0 | 4.0 | 0.00 | 0.09 | 0.12 | 76 | ||
| 20260506142016 | 61 | 0.0 | 4.0 | 0.00 | 0.09 | 0.12 | 77 | ||
| 20260506141035 | 60 | 1.0 | 5.0 | 0.00 | 0.09 | 0.12 | 78 | ||
| 20260506140035 | 59 | 0.0 | 4.0 | 0.00 | 0.09 | 0.12 | 81 | ||
| 20260506135016 | 59 | 0.0 | 3.0 | 0.00 | 0.09 | 0.12 | 81 | ||
| 20260506134015 | 59 | 1.0 | 4.0 | 0.00 | 0.13 | 0.12 | 81 | ||
| 20260506133015 | 60 | 0.0 | 2.0 | 0.00 | 0.13 | 0.12 | 80 | ||
| 20260506132015 | 60 | 0.0 | 2.0 | 0.00 | 0.13 | 0.12 | 80 | ||
| 20260506131016 | 60 | 0.0 | 1.0 | 0.00 | 0.13 | 0.12 | 80 | ||
| 20260506130015 | 59 | 0.0 | 2.0 | 0.00 | 0.13 | 0.12 | 80 | ||
| 20260506125015 | 59 | 0.0 | 1.0 | 0.00 | 0.13 | 0.12 | 80 | ||
| 20260506124015 | 59 | 0.0 | 4.0 | 0.01 | 0.13 | 0.12 | 80 | ||
| 20260506123016 | 59 | 0.0 | 4.0 | 0.01 | 0.13 | 0.12 | 80 | ||
| 20260506122016 | 60 | 0.0 | 2.0 | 0.02 | 0.13 | 0.12 | 80 | ||
| 20260506121015 | 60 | 0.0 | 0.0 | 0.02 | 0.13 | 0.12 | 80 | ||
| 20260506120015 | 59 | 0.0 | 4.0 | 0.02 | 0.13 | 0.12 | 80 | ||
| 20260506115015 | 60 | 0.0 | 3.0 | 0.03 | 0.13 | 0.12 | 80 | ||
| 20260506114015 | 59 | 0.0 | 4.0 | 0.05 | 0.12 | 0.11 | 80 | ||
| 20260506113016 | 58 | 0.0 | 3.0 | 0.06 | 0.12 | 0.11 | 79 | ||
| 20260506112015 | 57 | 0.0 | 4.0 | 0.06 | 0.11 | 0.10 | 79 | ||
| 20260506111015 | 57 | 1.0 | 8.0 | 0.06 | 0.11 | 0.10 | 79 | ||
| 20260506110015 | 56 | 3.0 | 10.0 | 0.06 | 0.10 | 0.09 | 78 | ||
| 20260506105015 | 56 | 2.0 | 11.0 | 0.05 | 0.09 | 0.09 | 77 | ||
| 20260506104015 | 56 | 4.0 | 9.0 | 0.02 | 0.07 | 0.06 | 78 | ||
| 20260506103015 | 57 | 5.0 | 13.0 | 0.01 | 0.06 | 0.05 | 80 | ||
| 20260506102035 | 59 | 8.0 | 15.0 | 0.01 | 0.06 | 0.05 | 80 | ||
| 20260506101015 | 62 | 3.0 | 9.0 | 0.01 | 0.06 | 0.05 | 77 | ||
| 20260506100015 | 61 | 0.0 | 1.0 | 0.00 | 0.05 | 0.04 | 80 | ||
| 20260506095016 | 58 | 0.0 | 0.0 | 0.00 | 0.05 | 0.04 | 77 | ||
| 20260506094015 | 57 | 0.0 | 1.0 | 0.00 | 0.05 | 0.04 | 76 | ||
| 20260506093015 | 57 | 0.0 | 5.0 | 0.00 | 0.05 | 0.04 | 73 | ||
| 20260506092035 | 57 | 0.0 | 0.0 | 0.00 | 0.05 | 0.04 | 66 | ||
| 20260506091015 | 57 | 0.0 | 0.0 | 0.00 | 0.05 | 0.04 | 59 | ||
| 20260506090016 | 57 | 0.0 | 0.0 | 0.00 | 0.05 | 0.04 | 58 | ||
| 20260506085016 | 56 | 0.0 | 0.0 | 0.00 | 0.05 | 0.04 | 58 | ||
| 20260506084516 | 0 | 0.0 | 0.0 | 0.00 | 0.05 | 0.00 | |||
| 20260506083515 | 0 | 0.0 | 0.0 | 0.00 | 0.05 | 0.00 | |||
| 20260506082015 | 0 | 0.0 | 0.0 | 0.00 | 0.05 | 0.00 | |||
| 20260506081015 | 0 | 0.0 | 0.0 | 0.00 | 0.05 | 0.00 | |||
| 20260506073015 | 0 | 0.0 | 0.0 | 0.00 | 0.05 | 0.00 | |||
| 20260506072035 | 0 | 0.0 | 0.0 | 0.00 | 0.05 | 0.00 | |||
| 20260506070515 | 0 | 0.0 | 0.0 | 0.00 | 0.05 | 0.00 | |||
| 20260506061517 | 0 | 0.0 | 0.0 | 0.00 | 0.05 | 0.00 | |||
| 20260506060515 | 0 | 0.0 | 0.0 | 0.00 | 0.05 | 0.00 | |||
| 20260506045017 | 0 | 0.0 | 0.0 | 0.00 | 0.05 | 0.00 | |||
| 20260506043517 | 0 | 0.0 | 0.0 | 0.00 | 0.05 | 0.00 | |||
| 20260506042517 | 0 | 0.0 | 0.0 | 0.00 | 0.05 | 0.00 | |||
| 20260506041017 | 0 | 0.0 | 0.0 | 0.00 | 0.05 | 0.00 | |||
| 20260506040017 | 0 | 0.0 | 0.0 | 0.00 | 0.05 | 0.00 | |||
| 20260506034517 | 0 | 0.0 | 0.0 | 0.00 | 0.05 | 0.00 | |||
| 20260506033537 | 0 | 0.0 | 0.0 | 0.00 | 0.05 | 0.00 | |||
| 20260506032017 | 0 | 0.0 | 0.0 | 0.00 | 0.05 | 0.00 | |||
| 20260506031017 | 0 | 0.0 | 0.0 | 0.00 | 0.05 | 0.00 | |||
| 20260506025517 | 0 | 0.0 | 0.0 | 0.00 | 0.05 | 0.00 | |||
| 20260506024538 | 0 | 0.0 | 0.0 | 0.00 | 0.05 | 0.00 | |||
| 20260506023016 | 0 | 0.0 | 0.0 | 0.00 | 0.05 | 0.00 | |||
| 20260506022017 | 0 | 0.0 | 0.0 | 0.00 | 0.05 | 0.00 | |||
| 20260506020537 | 0 | 0.0 | 0.0 | 0.00 | 0.05 | 0.00 | |||
| 20260506015517 | 0 | 0.0 | 0.0 | 0.00 | 0.05 | 0.00 | |||
| 20260506014017 | 0 | 0.0 | 0.0 | 0.00 | 0.05 | 0.00 | |||
| 20260506013017 | 0 | 0.0 | 0.0 | 0.00 | 0.05 | 0.00 | |||
| 20260506011517 | 0 | 0.0 | 0.0 | 0.00 | 0.05 | 0.00 | |||
| 20260506010516 | 0 | 0.0 | 0.0 | 0.00 | 0.05 | 0.00 | |||
| 20260506005016 | 0 | 0.0 | 0.0 | 0.00 | 0.05 | 0.00 | |||
| 20260506004017 | 0 | 0.0 | 0.0 | 0.00 | 0.05 | 0.00 | |||
| 20260506002517 | 0 | 0.0 | 0.0 | 0.00 | 0.05 | 0.00 | |||
| 20260506001537 | 0 | 0.0 | 0.0 | 0.00 | 0.05 | 0.00 | |||
| 20260506000017 | 0 | 0.0 | 0.0 | 0.00 | 0.05 | 0.00 | |||
| 20260505235017 | 0 | 0.0 | 0.0 | 0.00 | 0.05 | 0.00 | |||
| 20260505233517 | 0 | 0.0 | 0.0 | 0.00 | 0.05 | 0.00 | |||
| 20260505232517 | 0 | 0.0 | 0.0 | 0.00 | 0.05 | 0.00 | |||
| 20260505231016 | 0 | 0.0 | 0.0 | 0.00 | 0.05 | 0.00 | |||
| 20260505230016 | 0 | 0.0 | 0.0 | 0.00 | 0.05 | 0.00 | |||
| 20260505224517 | 0 | 0.0 | 0.0 | 0.00 | 0.05 | 0.00 | |||
| 20260505223517 | 0 | 0.0 | 0.0 | 0.00 | 0.05 | 0.00 | |||
| 20260505222017 | 0 | 0.0 | 0.0 | 0.00 | 0.05 | 0.00 | |||
| 20260505221016 | 0 | 0.0 | 0.0 | 0.00 | 0.05 | 0.00 | |||
| 20260505215556 | 0 | 0.0 | 0.0 | 0.00 | 0.05 | 0.05 | |||
| 20260505214515 | 0 | 0.0 | 0.0 | 0.00 | 0.05 | 0.05 |